Weather History for Winnemucca, NV

Change the Weather History Date:

Tuesday, March 19, 2013

  Actual Average Record
Temperature  
Mean Temperature 48 °F 42 °F  
Max Temperature 62 °F 57 °F 79 °F (1997)
Min Temperature 33 °F 27 °F 2 °F (1965)
Degree Days  
Heating Degree Days 17 23  
Month to date heating degree days 441 471  
Since 1 July heating degree days 5207 5060  
Cooling Degree Days 0 0  
Month to date cooling degree days 0 0  
Year to date cooling degree days 0 0  
Moisture  
Dew Point 21 °F    
Average Humidity 32    
Maximum Humidity 41    
Minimum Humidity 22    
Precipitation  
Precipitation T in 0.03 in 0.57 in (1890)
Month to date precipitation 0.16 0.50  
Year to date precipitation 0.62 2.03  
Snow  
Snow 0.00 in 0.10 in 3.80 in (1987)
Month to date snowfall T 2.1  
Since 1 July snowfall 21.9 18.1  
Snow Depth 0.00 in    
Sea Level Pressure  
Sea Level Pressure 30.03 in    
Wind  
Wind Speed 8 mph (ESE)    
Max Wind Speed 22 mph    
Max Gust Speed 28 mph    
Visibility 10 miles    
Events Rain    
T = Trace of Precipitation, MM = Missing Value Source: NWS Daily Summary

Daily Weather History Graph

Daily Weather History Graph

Search for Another Location

Airport:

Trip Planner

Search our weather history database for the weather conditions in past years. The results will help you decide how hot, cold, wet, or windy it might be!

Date:

Astronomy

Mar. 19, 2013 Rise Set
Actual Time 6:55 AM PDT 7:02 PM PDT
Civil Twilight 6:28 AM PDT 7:30 PM PDT
Nautical Twilight 5:56 AM PDT 8:02 PM PDT
Astronomical Twilight 5:23 AM PDT 8:34 PM PDT
Moon 11:47 AM PDT (3/19) 1:55 AM PDT (3/19)
Length of Visible Light 13h 01m
Length of Day
12h 06m
Waxing Crescent, 51% of the Moon is Illuminated
Mar 19
Waxing Crescent
Mar 27
Full
Apr 2
Last Quarter
Apr 10
New
Apr 18
First Quarter

Hourly Weather History & Observations

Time (PDT) Temp. Windchill Dew Point Humidity Pressure Visibility Wind Dir Wind Speed Gust Speed Precip Events Conditions
12:56 AM 43.0 °F 35.4 °F 10.0 °F 26% 30.05 in 10.0 mi NNE 16.1 mph 23.0 mph N/A   Mostly Cloudy
1:56 AM 42.1 °F 33.9 °F 10.9 °F 28% 30.06 in 10.0 mi NE 17.3 mph - N/A   Overcast
2:56 AM 41.0 °F 33.5 °F 10.0 °F 28% 30.06 in 10.0 mi NE 13.8 mph 20.7 mph N/A   Overcast
3:56 AM 39.9 °F 31.4 °F 10.0 °F 29% 30.06 in 10.0 mi NE 16.1 mph - N/A   Clear
4:56 AM 39.0 °F 31.0 °F 10.0 °F 30% 30.06 in 10.0 mi NE 13.8 mph - N/A   Partly Cloudy
5:56 AM 37.0 °F 29.8 °F 10.9 °F 34% 30.09 in 10.0 mi NE 10.4 mph - N/A   Clear
6:56 AM 35.1 °F 27.4 °F 10.9 °F 37% 30.12 in 10.0 mi ENE 10.4 mph - N/A   Clear
7:56 AM 37.0 °F 34.5 °F 12.0 °F 36% 30.13 in 10.0 mi ESE 3.5 mph - N/A   Clear
8:56 AM 42.1 °F 37.7 °F 12.0 °F 29% 30.15 in 10.0 mi ENE 6.9 mph - N/A   Clear
9:56 AM 46.9 °F - 12.9 °F 25% 30.13 in 10.0 mi East 4.6 mph - N/A   Clear
10:56 AM 52.0 °F - 16.0 °F 24% 30.12 in 10.0 mi Variable 3.5 mph - N/A   Overcast
11:56 AM 55.0 °F - 18.0 °F 23% 30.09 in 10.0 mi Calm Calm - N/A   Overcast
12:56 PM 57.9 °F - 21.9 °F 25% 30.06 in 10.0 mi SE 4.6 mph - N/A   Clear
1:56 PM 60.1 °F - 25.0 °F 26% 30.03 in 10.0 mi WSW 9.2 mph 17.3 mph N/A   Mostly Cloudy
2:56 PM 61.0 °F - 27.0 °F 27% 30.00 in 10.0 mi SW 11.5 mph - N/A   Mostly Cloudy
3:56 PM 60.1 °F - 27.0 °F 28% 29.99 in 10.0 mi Variable 4.6 mph - N/A   Scattered Clouds
4:56 PM 60.1 °F - 28.0 °F 30% 29.98 in 10.0 mi SSW 11.5 mph - N/A   Mostly Cloudy
5:56 PM 59.0 °F - 28.0 °F 31% 29.98 in 10.0 mi South 6.9 mph - N/A   Overcast
6:56 PM 57.0 °F - 28.0 °F 33% 29.97 in 10.0 mi SSW 5.8 mph - N/A   Overcast
7:56 PM 54.0 °F - 28.0 °F 37% 29.96 in 10.0 mi South 6.9 mph - N/A   Scattered Clouds
8:56 PM 52.0 °F - 28.0 °F 40% 29.95 in 10.0 mi SSE 8.1 mph - N/A   Partly Cloudy
9:56 PM 52.0 °F - 28.0 °F 40% 29.94 in 10.0 mi South 10.4 mph - N/A   Mostly Cloudy
10:56 PM 48.9 °F - 37.9 °F 66% 29.95 in 10.0 mi West 13.8 mph - 0.00 in Rain Light Rain
11:56 PM 48.0 °F - 37.9 °F 68% 29.94 in 10.0 mi Variable 3.5 mph - 0.00 in   Overcast